| time (UTC) | temp C | wind direction | speed KPH | gust KPH | rain 1hr cm | rain 24hr cm | rain mn cm | humidity % | barometer mb |
| 20260506145004 | 18 | 274 | 3.2 | 8.0 | 0.00 | 0.05 | 0.03 | 49 | 1009.5 |
| 20260506143004 | 18 | 329 | 6.4 | 11.3 | 0.00 | 0.05 | 0.03 | 46 | 1009.8 |
| 20260506141004 | 18 | 315 | 3.2 | 16.1 | 0.00 | 0.05 | 0.03 | 44 | 1009.8 |
| 20260506140005 | 19 | 196 | 8.0 | 11.3 | 0.00 | 0.05 | 0.03 | 45 | 1009.8 |
| 20260506134004 | 21 | 156 | 4.8 | 9.7 | 0.00 | 0.05 | 0.03 | 43 | 1009.8 |
| 20260506133005 | 21 | 203 | 4.8 | 9.7 | 0.00 | 0.05 | 0.03 | 43 | 1009.8 |
| 20260506130005 | 18 | 186 | 9.7 | 16.1 | 0.00 | 0.05 | 0.03 | 47 | 1010.2 |
| 20260506125006 | 20 | 196 | 3.2 | 12.9 | 0.00 | 0.05 | 0.03 | 45 | 1010.2 |
| 20260506124004 | 18 | 230 | 9.7 | 12.9 | 0.00 | 0.05 | 0.03 | 46 | 1010.5 |
| 20260506123004 | 18 | 165 | 4.8 | 8.0 | 0.00 | 0.05 | 0.03 | 47 | 1010.8 |
| 20260506122004 | 21 | 223 | 4.8 | 9.7 | 0.00 | 0.05 | 0.03 | 44 | 1010.5 |
| 20260506121004 | 18 | 198 | 3.2 | 9.7 | 0.00 | 0.05 | 0.03 | 51 | 1010.8 |
| 20260506115004 | 18 | 170 | 8.0 | 19.3 | 0.00 | 0.05 | 0.03 | 47 | 1010.8 |
| 20260506112004 | 17 | 188 | 4.8 | 14.5 | 0.00 | 0.05 | 0.03 | 53 | 1011.5 |
| 20260506111004 | 17 | 248 | 11.3 | 14.5 | 0.00 | 0.05 | 0.03 | 53 | 1011.5 |
| 20260506110004 | 17 | 227 | 8.0 | 9.7 | 0.00 | 0.05 | 0.03 | 57 | 1011.5 |
| 20260506104004 | 17 | 222 | 9.7 | 11.3 | 0.00 | 0.05 | 0.03 | 60 | 1011.5 |
| 20260506103004 | 17 | 232 | 8.0 | 9.7 | 0.00 | 0.05 | 0.03 | 58 | 1011.9 |
| 20260506101004 | 16 | 243 | 3.2 | 9.7 | 0.00 | 0.05 | 0.03 | 61 | 1011.9 |
| 20260506093004 | 16 | 215 | 4.8 | 8.0 | 0.00 | 0.05 | 0.03 | 61 | 1011.9 |
| 20260506091004 | 16 | 196 | 3.2 | 4.8 | 0.00 | 0.05 | 0.03 | 60 | 1012.2 |
| 20260506090004 | 15 | 341 | 3.2 | 4.8 | 0.00 | 0.05 | 0.03 | 62 | 1012.2 |
| 20260506082004 | 15 | 253 | 6.4 | 9.7 | 0.00 | 0.05 | 0.03 | 71 | 1012.5 |
| 20260506072004 | 12 | 215 | 4.8 | 9.7 | 0.00 | 0.05 | 0.03 | 77 | 1012.2 |
| 20260506062004 | 11 | 250 | 3.2 | 4.8 | 0.00 | 0.05 | 0.03 | 87 | 1012.5 |
| 20260506061004 | 12 | 307 | 3.2 | 4.8 | 0.00 | 0.05 | 0.03 | 88 | 1012.2 |
| 20260506051004 | 10 | 241 | 4.8 | 8.0 | 0.00 | 0.05 | 0.03 | 96 | 1012.4 |
| 20260506045004 | 8 | 313 | 3.2 | 4.8 | 0.03 | 0.05 | 0.03 | 99 | 1012.6 |
| 20260506044004 | 8 | 340 | 0.0 | 4.8 | 0.03 | 0.05 | 0.03 | 99 | 1012.9 |
| 20260506042004 | 8 | 292 | 3.2 | 9.7 | 0.03 | 0.05 | 0.03 | 99 | 1012.5 |
| 20260506041004 | 7 | 220 | 4.8 | 8.0 | 0.03 | 0.05 | 0.03 | 99 | 1012.9 |
| 20260506040004 | 7 | 195 | 4.8 | 4.8 | 0.03 | 0.05 | 0.03 | 99 | 1012.5 |
| 20260506034004 | 7 | 210 | 3.2 | 9.7 | 0.00 | 0.03 | 0.00 | 99 | 1012.2 |
| 20260506033005 | 7 | 198 | 4.8 | 4.8 | 0.00 | 0.03 | 0.00 | 99 | 1012.2 |
| 20260506032004 | 7 | 250 | 1.6 | 3.2 | 0.00 | 0.03 | 0.00 | 99 | 1011.9 |
| 20260506031004 | 7 | 260 | 3.2 | 3.2 | 0.00 | 0.03 | 0.00 | 99 | 1012.2 |
| 20260506030004 | 7 | 330 | 0.0 | 0.0 | 0.00 | 0.03 | 0.00 | 99 | 1012.2 |
| 20260506022004 | 7 | 347 | 0.0 | 0.0 | 0.00 | 0.03 | 0.00 | 98 | 1012.5 |
| 20260506021115 | 7 | 341 | 0.0 | 1.6 | 0.00 | 0.03 | 0.00 | 98 | 1012.5 |
| 20260506020004 | 7 | 348 | 0.0 | 0.0 | 0.00 | 0.03 | 0.00 | 97 | 1012.9 |
| 20260506012004 | 9 | 271 | 1.6 | 3.2 | 0.00 | 0.03 | 0.00 | 95 | 1012.5 |
| 20260506011004 | 9 | 267 | 1.6 | 4.8 | 0.00 | 0.03 | 0.00 | 95 | 1012.5 |
| 20260506005004 | 9 | 350 | 1.6 | 8.0 | 0.00 | 0.03 | 0.00 | 97 | 1012.5 |
| 20260506004004 | 9 | 15 | 4.8 | 8.0 | 0.00 | 0.03 | 0.00 | 97 | 1012.5 |
| 20260506001004 | 10 | 63 | 0.0 | 9.7 | 0.00 | 0.03 | 0.00 | 94 | 1012.4 |
| 20260505235004 | 10 | 332 | 0.0 | 1.6 | 0.00 | 0.03 | 0.03 | 92 | 1012.2 |
| 20260505234004 | 10 | 350 | 1.6 | 1.6 | 0.00 | 0.03 | 0.03 | 91 | 1012.2 |
| 20260505233004 | 10 | 355 | 0.0 | 3.2 | 0.00 | 0.03 | 0.03 | 90 | 1012.2 |
| 20260505232004 | 9 | 343 | 0.0 | 0.0 | 0.00 | 0.03 | 0.03 | 92 | 1012.2 |
| 20260505231004 | 9 | 353 | 0.0 | 4.8 | 0.00 | 0.03 | 0.03 | 94 | 1011.9 |
| 20260505230004 | 8 | 301 | 1.6 | 4.8 | 0.00 | 0.03 | 0.03 | 94 | 1011.9 |
| 20260505225004 | 8 | 352 | 0.0 | 0.0 | 0.00 | 0.03 | 0.03 | 98 | 1011.9 |
| 20260505223004 | 9 | 19 | 1.6 | 1.6 | 0.00 | 0.03 | 0.03 | 97 | 1011.5 |
| 20260505222004 | 9 | 347 | 0.0 | 1.6 | 0.00 | 0.03 | 0.03 | 97 | 1011.5 |
| 20260505215004 | 10 | 329 | 0.0 | 3.2 | 0.03 | 0.03 | 0.03 | 96 | 1011.2 |
| 20260505213004 | 11 | 354 | 0.0 | 4.8 | 0.03 | 0.03 | 0.03 | 93 | 1011.2 |
| 20260505212004 | 11 | 323 | 1.6 | 3.2 | 0.03 | 0.03 | 0.03 | 92 | 1010.8 |
| 20260505205004 | 11 | 351 | 0.0 | 9.7 | 0.00 | 0.00 | 0.00 | 89 | 1011.5 |
| 20260505203004 | 12 | 180 | 9.7 | 12.9 | 0.00 | 0.00 | 0.00 | 83 | 1011.5 |
| 20260505195004 | 13 | 332 | 3.2 | 8.0 | 0.00 | 0.00 | 0.00 | 71 | 1011.2 |
| 20260505194004 | 14 | 124 | 3.2 | 8.0 | 0.00 | 0.00 | 0.00 | 70 | 1010.8 |
| 20260505192004 | 15 | 202 | 11.3 | 19.3 | 0.00 | 0.00 | 0.00 | 64 | 1010.5 |
| 20260505185004 | 14 | 351 | 0.0 | 0.0 | 0.00 | 0.00 | 0.00 | 64 | 1009.5 |
| 20260505183004 | 15 | 351 | 0.0 | 0.0 | 0.00 | 0.00 | 0.00 | 58 | 1009.5 |
| 20260505182004 | 15 | 348 | 0.0 | 0.0 | 0.00 | 0.00 | 0.00 | 54 | 1009.5 |
| 20260505180004 | 17 | 341 | 0.0 | 1.6 | 0.00 | 0.00 | 0.00 | 48 | 1009.5 |
| 20260505173004 | 18 | 199 | 3.2 | 3.2 | 0.00 | 0.00 | 0.00 | 45 | 1009.5 |
| 20260505172004 | 18 | 338 | 0.0 | 8.0 | 0.00 | 0.00 | 0.00 | 46 | 1009.5 |
| 20260505170004 | 18 | 305 | 1.6 | 3.2 | 0.00 | 0.00 | 0.00 | 45 | 1009.8 |
| 20260505164004 | 19 | 221 | 8.0 | 11.3 | 0.00 | 0.00 | 0.00 | 41 | 1009.5 |
| 20260505163004 | 19 | 205 | 8.0 | 11.3 | 0.00 | 0.00 | 0.00 | 41 | 1009.8 |
| 20260505161004 | 19 | 191 | 4.8 | 8.0 | 0.00 | 0.00 | 0.00 | 41 | 1009.8 |
| 20260505151004 | 21 | 311 | 1.6 | 8.0 | 0.00 | 0.00 | 0.00 | 38 | 1010.2 |